| time (UTC) | temp C | wind direction | speed KPH | gust KPH | rain 1hr cm | rain 24hr cm | rain mn cm | humidity % | barometer mb |
| 20260506034557 | 11 | 0 | 0.0 | 1.6 | 0.00 | 0.36 | 0.36 | 47 | 1008.2 |
| 20260506033056 | 11 | 248 | 0.0 | 0.0 | 0.00 | 0.36 | 0.36 | 46 | 1008.3 |
| 20260506031555 | 11 | 0 | 0.0 | 3.2 | 0.00 | 0.36 | 0.36 | 46 | 1007.9 |
| 20260506030054 | 11 | 0 | 0.0 | 3.2 | 0.00 | 0.36 | 0.36 | 46 | 1007.8 |
| 20260506024549 | 11 | 0 | 0.0 | 1.6 | 0.00 | 0.36 | 0.36 | 46 | 1007.8 |
| 20260506023056 | 11 | 259 | 0.0 | 1.6 | 0.00 | 0.36 | 0.36 | 46 | 1007.8 |
| 20260506021558 | 11 | 0 | 0.0 | 1.6 | 0.00 | 0.36 | 0.36 | 46 | 1007.6 |
| 20260506020050 | 11 | 0 | 0.0 | 1.6 | 0.00 | 0.36 | 0.36 | 44 | 1007.5 |
| 20260506014551 | 11 | 0 | 0.0 | 1.6 | 0.00 | 0.36 | 0.36 | 44 | 1007.2 |
| 20260506013051 | 11 | 0 | 0.0 | 0.0 | 0.00 | 0.36 | 0.36 | 43 | 1007.1 |
| 20260506011554 | 12 | 0 | 0.0 | 1.6 | 0.00 | 0.36 | 0.36 | 41 | 1006.8 |
| 20260506010056 | 12 | 0 | 0.0 | 1.6 | 0.00 | 0.36 | 0.36 | 41 | 1006.6 |
| 20260506004548 | 12 | 0 | 0.0 | 8.0 | 0.00 | 0.36 | 0.36 | 39 | 1006.5 |
| 20260506003054 | 12 | 293 | 0.0 | 4.8 | 0.00 | 0.36 | 0.36 | 39 | 1006.3 |
| 20260506001604 | 12 | 0 | 0.0 | 6.4 | 0.00 | 0.36 | 0.36 | 38 | 1006.4 |
| 20260506000053 | 12 | 0 | 0.0 | 8.0 | 0.00 | 0.36 | 0.36 | 38 | 1006.1 |
| 20260505234610 | 12 | 0 | 0.0 | 8.0 | 0.00 | 0.36 | 0.36 | 38 | 1006.2 |
| 20260505233051 | 12 | 262 | 0.0 | 4.8 | 0.00 | 0.36 | 0.36 | 37 | 1006.5 |
| 20260505231551 | 13 | 46 | 1.6 | 6.4 | 0.00 | 0.36 | 0.36 | 36 | 1006.4 |
| 20260505230053 | 13 | 273 | 0.0 | 4.8 | 0.00 | 0.36 | 0.36 | 37 | 1006.4 |
| 20260505224552 | 13 | 285 | 0.0 | 3.2 | 0.00 | 0.36 | 0.36 | 37 | 1006.5 |
| 20260505223104 | 13 | 243 | 1.6 | 11.3 | 0.00 | 0.36 | 0.36 | 35 | 1006.7 |
| 20260505221551 | 13 | 0 | 1.6 | 9.7 | 0.00 | 0.36 | 0.36 | 35 | 1006.5 |
| 20260505220055 | 13 | 293 | 1.6 | 8.0 | 0.00 | 0.36 | 0.36 | 33 | 1006.8 |
| 20260505214555 | 13 | 269 | 0.0 | 8.0 | 0.00 | 0.36 | 0.36 | 34 | 1006.8 |
| 20260505213054 | 13 | 274 | 3.2 | 9.7 | 0.00 | 0.36 | 0.36 | 33 | 1006.9 |
| 20260505211605 | 13 | 346 | 0.0 | 8.0 | 0.00 | 0.36 | 0.36 | 37 | 1006.7 |
| 20260505210054 | 13 | 319 | 3.2 | 9.7 | 0.00 | 0.36 | 0.36 | 34 | 1006.7 |
| 20260505204547 | 12 | 0 | 0.0 | 6.4 | 0.00 | 0.36 | 0.36 | 36 | 1006.8 |
| 20260505203116 | 12 | 245 | 1.6 | 8.0 | 0.00 | 0.36 | 0.36 | 35 | 1007.1 |
| 20260505201552 | 12 | 288 | 0.0 | 12.9 | 0.00 | 0.36 | 0.36 | 35 | 1007.1 |
| 20260505200053 | 12 | 0 | 0.0 | 4.8 | 0.00 | 0.36 | 0.36 | 38 | 1007.2 |
| 20260505194554 | 13 | 0 | 1.6 | 11.3 | 0.00 | 0.36 | 0.36 | 36 | 1007.1 |
| 20260505193052 | 13 | 280 | 0.0 | 4.8 | 0.00 | 0.36 | 0.36 | 39 | 1007.2 |
| 20260505191557 | 13 | 0 | 0.0 | 8.0 | 0.00 | 0.36 | 0.36 | 38 | 1007.3 |
| 20260505190051 | 13 | 0 | 1.6 | 11.3 | 0.00 | 0.36 | 0.36 | 39 | 1007.3 |
| 20260505184600 | 13 | 285 | 1.6 | 9.7 | 0.00 | 0.36 | 0.36 | 38 | 1007.3 |
| 20260505183059 | 13 | 241 | 3.2 | 12.9 | 0.00 | 0.36 | 0.36 | 36 | 1007.2 |
| 20260505181556 | 13 | 289 | 0.0 | 4.8 | 0.00 | 0.36 | 0.36 | 36 | 1007.2 |
| 20260505174548 | 13 | 258 | 1.6 | 8.0 | 0.00 | 0.36 | 0.36 | 36 | 1007.0 |
| 20260505173056 | 13 | 294 | 1.6 | 6.4 | 0.00 | 0.36 | 0.36 | 39 | 1006.9 |
| 20260505171555 | 13 | 258 | 1.6 | 8.0 | 0.00 | 0.36 | 0.36 | 42 | 1006.9 |
| 20260505170052 | 13 | 295 | 0.0 | 6.4 | 0.00 | 0.36 | 0.36 | 42 | 1006.9 |
| 20260505164550 | 12 | 0 | 0.0 | 9.7 | 0.00 | 0.36 | 0.36 | 44 | 1006.8 |
| 20260505163052 | 12 | 318 | 1.6 | 6.4 | 0.00 | 0.36 | 0.36 | 46 | 1007.1 |
| 20260505161548 | 12 | 300 | 1.6 | 6.4 | 0.00 | 0.36 | 0.36 | 45 | 1006.8 |
| 20260505153053 | 11 | 0 | 1.6 | 8.0 | 0.00 | 0.36 | 0.36 | 56 | 1006.6 |
| 20260505151551 | 10 | 289 | 0.0 | 6.4 | 0.00 | 0.36 | 0.36 | 61 | 1006.8 |
| 20260505124559 | 7 | 0 | 1.6 | 4.8 | 0.20 | 0.20 | 0.20 | 78 | 1006.8 |
| 20260505123053 | 7 | 0 | 0.0 | 3.2 | 0.13 | 0.13 | 0.13 | 77 | 1006.6 |
| 20260505121557 | 8 | 0 | 0.0 | 4.8 | 0.08 | 0.08 | 0.08 | 74 | 1007.0 |
| 20260505120107 | 9 | 301 | 0.0 | 6.4 | 0.03 | 0.03 | 0.03 | 65 | 1006.8 |
| 20260505114556 | 10 | 0 | 0.0 | 4.8 | 0.00 | 0.00 | 0.00 | 55 | 1005.8 |
| 20260505113101 | 10 | 281 | 0.0 | 6.4 | 0.00 | 0.00 | 0.00 | 52 | 1005.5 |
| 20260505111556 | 10 | 305 | 0.0 | 4.8 | 0.00 | 0.00 | 0.00 | 53 | 1004.7 |
| 20260505101557 | 11 | 331 | 0.0 | 4.8 | 0.00 | 0.00 | 0.00 | 54 | 1003.8 |
| 20260505100055 | 11 | 0 | 0.0 | 4.8 | 0.00 | 0.00 | 0.00 | 52 | 1004.0 |
| 20260505094600 | 12 | 0 | 0.0 | 3.2 | 0.00 | 0.00 | 0.00 | 53 | 1004.2 |
| 20260505093057 | 12 | 39 | 0.0 | 6.4 | 0.00 | 0.00 | 0.00 | 52 | 1004.0 |
| 20260505091551 | 13 | 275 | 0.0 | 8.0 | 0.00 | 0.00 | 0.00 | 51 | 1003.7 |
| 20260505090059 | 13 | 0 | 0.0 | 4.8 | 0.00 | 0.00 | 0.00 | 47 | 1003.6 |
| 20260505084600 | 13 | 0 | 0.0 | 6.4 | 0.00 | 0.00 | 0.00 | 45 | 1003.0 |
| 20260505083103 | 14 | 329 | 0.0 | 3.2 | 0.00 | 0.00 | 0.00 | 45 | 1002.3 |
| 20260505081556 | 14 | 316 | 0.0 | 4.8 | 0.00 | 0.00 | 0.00 | 45 | 1002.1 |
| 20260505080051 | 14 | 0 | 0.0 | 1.6 | 0.00 | 0.00 | 0.00 | 46 | 1001.8 |
| 20260505074556 | 15 | 0 | 0.0 | 6.4 | 0.00 | 0.00 | 0.00 | 45 | 1001.3 |
| 20260505073058 | 15 | 0 | 0.0 | 1.6 | 0.00 | 0.00 | 0.00 | 45 | 1001.2 |
| 20260505071559 | 15 | 0 | 0.0 | 3.2 | 0.00 | 0.00 | 0.00 | 43 | 1001.0 |
| 20260505070104 | 15 | 300 | 0.0 | 6.4 | 0.00 | 0.00 | 0.00 | 42 | 1000.7 |
| 20260505064558 | 15 | 278 | 1.6 | 9.7 | 0.00 | 0.00 | 0.00 | 44 | 1000.7 |
| 20260505063053 | 15 | 266 | 0.0 | 4.8 | 0.00 | 0.00 | 0.00 | 45 | 1000.5 |
| 20260505061612 | 15 | 328 | 0.0 | 9.7 | 0.00 | 0.00 | 0.00 | 44 | 1000.4 |
| 20260505060100 | 16 | 290 | 0.0 | 4.8 | 0.00 | 0.00 | 0.00 | 47 | 1000.2 |
| 20260505054557 | 16 | 265 | 0.0 | 6.4 | 0.00 | 0.00 | 0.00 | 52 | 1000.4 |
| 20260505053050 | 15 | 0 | 0.0 | 3.2 | 0.00 | 0.00 | 0.00 | 61 | 1000.4 |
| 20260505051555 | 16 | 283 | 0.0 | 4.8 | 0.00 | 0.00 | 0.00 | 62 | 999.8 |
| 20260505041601 | 16 | 0 | 0.0 | 1.6 | 0.00 | 0.00 | 0.00 | 70 | 999.1 |
| 20260505040103 | 17 | 0 | 0.0 | 3.2 | 0.00 | 0.00 | 0.00 | 70 | 999.1 |